| time (UTC) | temp F | wind direction | speed MPH | gust MPH | rain 1hr in | rain 24hr in | rain mn in | humidity % | barometer mb |
| 20260903011106 | 79 | 67 | 5.0 | 10.0 | 0.00 | 0.00 | 0.00 | 83 | 1006.9 |
| 20260903011010 | 79 | 48 | 5.0 | 10.0 | 0.00 | 0.00 | 0.00 | 83 | 1006.8 |
| 20260903010804 | 79 | 96 | 5.0 | 8.0 | 0.00 | 0.00 | 0.00 | 83 | 1006.8 |
| 20260903010704 | 79 | 65 | 5.0 | 8.0 | 0.00 | 0.00 | 0.00 | 83 | 1006.7 |
| 20260903010602 | 79 | 43 | 4.0 | 7.0 | 0.00 | 0.00 | 0.00 | 83 | 1006.7 |
| 20260903010403 | 79 | 107 | 4.0 | 8.0 | 0.00 | 0.00 | 0.00 | 82 | 1006.7 |
| 20260903010305 | 79 | 95 | 3.0 | 8.0 | 0.00 | 0.00 | 0.00 | 82 | 1006.7 |
| 20260903005912 | 79 | 88 | 4.0 | 8.0 | 0.00 | 0.00 | 0.00 | 82 | 1006.6 |
| 20260903005758 | 79 | 101 | 4.0 | 8.0 | 0.00 | 0.00 | 0.00 | 82 | 1006.7 |
| 20260903005606 | 79 | 333 | 2.0 | 7.0 | 0.00 | 0.00 | 0.00 | 82 | 1006.6 |
| 20260903005402 | 79 | 72 | 3.0 | 7.0 | 0.00 | 0.00 | 0.00 | 82 | 1006.6 |
| 20260903005107 | 80 | 113 | 3.0 | 7.0 | 0.00 | 0.00 | 0.00 | 82 | 1006.3 |
| 20260903005009 | 80 | 49 | 3.0 | 7.0 | 0.00 | 0.00 | 0.00 | 82 | 1006.3 |
| 20260903004802 | 80 | 106 | 3.0 | 7.0 | 0.00 | 0.00 | 0.00 | 82 | 1006.3 |
| 20260903004603 | 80 | 103 | 4.0 | 6.0 | 0.00 | 0.00 | 0.00 | 82 | 1006.2 |
| 20260903004505 | 80 | 98 | 3.0 | 7.0 | 0.00 | 0.00 | 0.00 | 82 | 1006.2 |
| 20260903004359 | 80 | 134 | 3.0 | 7.0 | 0.00 | 0.00 | 0.00 | 81 | 1006.1 |
| 20260903004303 | 80 | 111 | 3.0 | 7.0 | 0.00 | 0.00 | 0.00 | 82 | 1006.2 |
| 20260903004202 | 80 | 120 | 3.0 | 7.0 | 0.00 | 0.00 | 0.00 | 81 | 1006.2 |
| 20260903004004 | 80 | 44 | 2.0 | 9.0 | 0.00 | 0.00 | 0.00 | 81 | 1006.2 |
| 20260903003901 | 80 | 71 | 2.0 | 9.0 | 0.00 | 0.00 | 0.00 | 81 | 1006.2 |
| 20260903003658 | 80 | 123 | 3.0 | 10.0 | 0.00 | 0.00 | 0.00 | 81 | 1006.4 |
| 20260903003600 | 80 | 88 | 4.0 | 10.0 | 0.00 | 0.00 | 0.00 | 81 | 1006.3 |
| 20260903003508 | 80 | 137 | 5.0 | 10.0 | 0.00 | 0.00 | 0.00 | 81 | 1006.3 |
| 20260903003404 | 80 | 80 | 4.0 | 10.0 | 0.00 | 0.00 | 0.00 | 81 | 1006.3 |
| 20260903003304 | 80 | 105 | 4.0 | 10.0 | 0.00 | 0.00 | 0.00 | 81 | 1006.2 |
| 20260903003201 | 80 | 75 | 3.0 | 10.0 | 0.00 | 0.00 | 0.00 | 81 | 1006.1 |
| 20260903003102 | 80 | 112 | 4.0 | 10.0 | 0.00 | 0.00 | 0.00 | 81 | 1006.0 |
| 20260903003007 | 80 | 143 | 6.0 | 10.0 | 0.00 | 0.00 | 0.00 | 81 | 1006.1 |
| 20260903002902 | 80 | 74 | 5.0 | 10.0 | 0.00 | 0.00 | 0.00 | 81 | 1006.0 |
| 20260903002800 | 80 | 132 | 5.0 | 10.0 | 0.00 | 0.00 | 0.00 | 82 | 1006.0 |
| 20260903002710 | 80 | 101 | 5.0 | 10.0 | 0.00 | 0.00 | 0.00 | 81 | 1006.0 |
| 20260902235104 | 83 | 90 | 5.0 | 9.0 | 0.00 | 0.00 | 0.00 | 90 | 1005.9 |
| 20260902235002 | 83 | 116 | 3.0 | 7.0 | 0.00 | 0.00 | 0.00 | 89 | 1005.9 |
| 20260902234901 | 83 | 107 | 4.0 | 7.0 | 0.00 | 0.00 | 0.00 | 89 | 1006.0 |
| 20260902234803 | 83 | 123 | 5.0 | 7.0 | 0.00 | 0.00 | 0.00 | 89 | 1005.9 |
| 20260902234700 | 83 | 84 | 4.0 | 8.0 | 0.00 | 0.00 | 0.00 | 89 | 1006.0 |
| 20260902234604 | 83 | 103 | 4.0 | 8.0 | 0.00 | 0.00 | 0.00 | 89 | 1006.0 |
| 20260902234300 | 83 | 90 | 3.0 | 7.0 | 0.00 | 0.00 | 0.00 | 89 | 1005.9 |
| 20260902234201 | 83 | 101 | 3.0 | 7.0 | 0.00 | 0.00 | 0.00 | 89 | 1005.8 |
| 20260902234059 | 83 | 100 | 2.0 | 5.0 | 0.00 | 0.00 | 0.00 | 89 | 1005.8 |
| 20260902234005 | 83 | 72 | 2.0 | 5.0 | 0.00 | 0.00 | 0.00 | 89 | 1005.7 |
| 20260902233900 | 83 | 80 | 2.0 | 5.0 | 0.00 | 0.00 | 0.00 | 89 | 1005.7 |
| 20260902233800 | 83 | 71 | 1.0 | 5.0 | 0.00 | 0.00 | 0.00 | 89 | 1005.7 |
| 20260902233505 | 83 | 152 | 2.0 | 5.0 | 0.00 | 0.00 | 0.00 | 89 | 1005.7 |
| 20260902233400 | 83 | 66 | 3.0 | 5.0 | 0.00 | 0.00 | 0.00 | 89 | 1005.8 |
| 20260902233259 | 83 | 62 | 2.0 | 8.0 | 0.00 | 0.00 | 0.00 | 89 | 1005.8 |
| 20260902233158 | 83 | 67 | 1.0 | 8.0 | 0.00 | 0.00 | 0.00 | 89 | 1005.7 |
| 20260902233002 | 83 | 86 | 2.0 | 8.0 | 0.00 | 0.00 | 0.00 | 89 | 1005.8 |
| 20260902232901 | 83 | 110 | 2.0 | 8.0 | 0.00 | 0.00 | 0.00 | 89 | 1005.9 |
| 20260902232800 | 83 | 63 | 1.0 | 8.0 | 0.00 | 0.00 | 0.00 | 89 | 1005.9 |
| 20260902232701 | 83 | 80 | 2.0 | 8.0 | 0.00 | 0.00 | 0.00 | 89 | 1005.9 |
| 20260902232500 | 83 | 88 | 3.0 | 8.0 | 0.00 | 0.00 | 0.00 | 89 | 1005.8 |
| 20260902232400 | 83 | 74 | 2.0 | 5.0 | 0.00 | 0.00 | 0.00 | 89 | 1005.8 |
| 20260902232201 | 83 | 84 | 3.0 | 5.0 | 0.00 | 0.00 | 0.00 | 89 | 1005.7 |
| 20260902232101 | 83 | 56 | 2.0 | 5.0 | 0.00 | 0.00 | 0.00 | 89 | 1005.8 |
| 20260902232006 | 83 | 80 | 2.0 | 5.0 | 0.00 | 0.00 | 0.00 | 89 | 1005.8 |
| 20260902231902 | 83 | 85 | 2.0 | 5.0 | 0.00 | 0.00 | 0.00 | 89 | 1005.8 |
| 20260902231757 | 83 | 79 | 2.0 | 5.0 | 0.00 | 0.00 | 0.00 | 89 | 1005.8 |
| 20260902231704 | 83 | 80 | 2.0 | 5.0 | 0.00 | 0.00 | 0.00 | 89 | 1005.8 |
| 20260902231601 | 83 | 88 | 3.0 | 5.0 | 0.00 | 0.00 | 0.00 | 89 | 1005.8 |
| 20260902231504 | 83 | 40 | 3.0 | 5.0 | 0.00 | 0.00 | 0.00 | 89 | 1005.8 |
| 20260902231401 | 83 | 51 | 2.0 | 5.0 | 0.00 | 0.00 | 0.00 | 89 | 1005.7 |
| 20260902231159 | 83 | 70 | 3.0 | 5.0 | 0.00 | 0.00 | 0.00 | 89 | 1005.8 |
| 20260902231103 | 83 | 58 | 3.0 | 5.0 | 0.00 | 0.00 | 0.00 | 89 | 1005.8 |
| 20260902231005 | 83 | 71 | 3.0 | 5.0 | 0.00 | 0.00 | 0.00 | 89 | 1005.7 |
| 20260902230901 | 83 | 46 | 2.0 | 5.0 | 0.00 | 0.00 | 0.00 | 89 | 1005.6 |
| 20260902230805 | 83 | 82 | 3.0 | 5.0 | 0.00 | 0.00 | 0.00 | 89 | 1005.7 |
| 20260902230701 | 83 | 63 | 3.0 | 5.0 | 0.00 | 0.00 | 0.00 | 89 | 1005.6 |
| 20260902230600 | 83 | 74 | 2.0 | 5.0 | 0.00 | 0.00 | 0.00 | 89 | 1005.6 |
| 20260902230401 | 83 | 57 | 3.0 | 5.0 | 0.00 | 0.00 | 0.00 | 89 | 1005.7 |
| 20260902230300 | 83 | 51 | 3.0 | 5.0 | 0.00 | 0.00 | 0.00 | 88 | 1005.6 |
| 20260902230203 | 83 | 59 | 3.0 | 5.0 | 0.00 | 0.00 | 0.00 | 88 | 1005.6 |
| 20260902230059 | 83 | 67 | 3.0 | 5.0 | 0.00 | 0.00 | 0.00 | 88 | 1005.7 |
| 20260902230001 | 83 | 67 | 3.0 | 5.0 | 0.00 | 0.00 | 0.00 | 88 | 1005.6 |
| 20260902225940 | 83 | 67 | 3.0 | 5.0 | 0.00 | 0.00 | 0.00 | 88 | 1005.6 |
| 20260902193901 | 85 | 103 | 0.0 | 1.0 | 0.00 | 0.00 | 0.00 | 81 | 1005.9 |
| 20260902193802 | 85 | 103 | 0.0 | 1.0 | 0.00 | 0.00 | 0.00 | 81 | 1005.9 |
| 20260902193703 | 85 | 103 | 0.0 | 1.0 | 0.00 | 0.00 | 0.00 | 81 | 1005.9 |
| 20260902193603 | 85 | 103 | 0.0 | 1.0 | 0.00 | 0.00 | 0.00 | 81 | 1005.9 |
| 20260902193359 | 85 | 103 | 0.0 | 1.0 | 0.00 | 0.00 | 0.00 | 81 | 1005.9 |
| 20260902193301 | 85 | 103 | 0.0 | 2.0 | 0.00 | 0.00 | 0.00 | 81 | 1005.9 |
| 20260902193202 | 85 | 103 | 0.0 | 2.0 | 0.00 | 0.00 | 0.00 | 81 | 1005.9 |
| 20260902193100 | 85 | 103 | 0.0 | 2.0 | 0.00 | 0.00 | 0.00 | 81 | 1005.9 |
| 20260902192703 | 85 | 103 | 0.0 | 2.0 | 0.00 | 0.00 | 0.00 | 80 | 1005.9 |
| 20260902192603 | 85 | 103 | 1.0 | 2.0 | 0.00 | 0.00 | 0.00 | 80 | 1005.9 |
| 20260902192503 | 85 | 103 | 1.0 | 2.0 | 0.00 | 0.00 | 0.00 | 80 | 1005.9 |
| 20260902192359 | 85 | 103 | 1.0 | 2.0 | 0.00 | 0.00 | 0.00 | 80 | 1006.0 |
| 20260902192300 | 85 | 103 | 1.0 | 2.0 | 0.00 | 0.00 | 0.00 | 80 | 1005.9 |
| 20260902192205 | 85 | 103 | 1.0 | 2.0 | 0.00 | 0.00 | 0.00 | 80 | 1005.9 |
| 20260902192102 | 85 | 103 | 1.0 | 2.0 | 0.00 | 0.00 | 0.00 | 80 | 1006.0 |
| 20260902192004 | 86 | 109 | 1.0 | 3.0 | 0.00 | 0.00 | 0.00 | 80 | 1006.0 |
| 20260902191902 | 85 | 102 | 0.0 | 3.0 | 0.00 | 0.00 | 0.00 | 80 | 1006.0 |
| 20260902191804 | 86 | 85 | 0.0 | 3.0 | 0.00 | 0.00 | 0.00 | 80 | 1006.0 |
| 20260902191703 | 86 | 85 | 1.0 | 3.0 | 0.00 | 0.00 | 0.00 | 80 | 1006.0 |
| 20260902191603 | 85 | 111 | 1.0 | 3.0 | 0.00 | 0.00 | 0.00 | 80 | 1006.1 |
| 20260902191404 | 86 | 126 | 1.0 | 3.0 | 0.00 | 0.00 | 0.00 | 80 | 1005.9 |
| 20260902191305 | 86 | 99 | 1.0 | 3.0 | 0.00 | 0.00 | 0.00 | 80 | 1006.0 |
| 20260902191204 | 86 | 94 | 2.0 | 3.0 | 0.00 | 0.00 | 0.00 | 80 | 1006.0 |
| 20260902191103 | 86 | 41 | 2.0 | 3.0 | 0.00 | 0.00 | 0.00 | 80 | 1006.0 |
| 20260902191009 | 86 | 86 | 1.0 | 3.0 | 0.00 | 0.00 | 0.00 | 80 | 1006.0 |
| 20260902190903 | 86 | 94 | 1.0 | 2.0 | 0.00 | 0.00 | 0.00 | 80 | 1006.0 |
| 20260902190704 | 86 | 82 | 0.0 | 2.0 | 0.00 | 0.00 | 0.00 | 80 | 1006.1 |
| 20260902190559 | 86 | 82 | 0.0 | 2.0 | 0.00 | 0.00 | 0.00 | 80 | 1006.0 |
| 20260902190305 | 86 | 86 | 1.0 | 2.0 | 0.00 | 0.00 | 0.00 | 80 | 1006.0 |
| 20260902190005 | 86 | 132 | 0.0 | 2.0 | 0.00 | 0.00 | 0.00 | 80 | 1006.1 |
| 20260902185801 | 86 | 132 | 0.0 | 2.0 | 0.00 | 0.00 | 0.00 | 80 | 1006.1 |
| 20260902185702 | 86 | 132 | 0.0 | 2.0 | 0.00 | 0.00 | 0.00 | 80 | 1006.1 |
| 20260902185604 | 86 | 139 | 0.0 | 2.0 | 0.00 | 0.00 | 0.00 | 80 | 1006.1 |
| 20260902185501 | 86 | 139 | 0.0 | 3.0 | 0.00 | 0.00 | 0.00 | 79 | 1006.0 |
| 20260902185359 | 86 | 139 | 1.0 | 3.0 | 0.00 | 0.00 | 0.00 | 79 | 1006.1 |
| 20260902185300 | 86 | 124 | 1.0 | 3.0 | 0.00 | 0.00 | 0.00 | 80 | 1006.1 |
| 20260902185203 | 86 | 129 | 1.0 | 3.0 | 0.00 | 0.00 | 0.00 | 79 | 1006.1 |
| 20260902184901 | 86 | 75 | 0.0 | 3.0 | 0.00 | 0.00 | 0.00 | 80 | 1006.1 |
| 20260902184758 | 86 | 75 | 1.0 | 3.0 | 0.00 | 0.00 | 0.00 | 79 | 1006.1 |
| 20260902184602 | 86 | 124 | 2.0 | 3.0 | 0.00 | 0.00 | 0.00 | 79 | 1006.1 |
| 20260902184508 | 86 | 117 | 2.0 | 3.0 | 0.00 | 0.00 | 0.00 | 80 | 1006.1 |
| 20260902184403 | 86 | 136 | 1.0 | 3.0 | 0.00 | 0.00 | 0.00 | 80 | 1006.1 |
| 20260902184303 | 85 | 144 | 1.0 | 3.0 | 0.00 | 0.00 | 0.00 | 80 | 1006.1 |
| 20260902184200 | 86 | 144 | 2.0 | 3.0 | 0.00 | 0.00 | 0.00 | 80 | 1006.2 |
| 20260902184101 | 86 | 144 | 1.0 | 3.0 | 0.00 | 0.00 | 0.00 | 80 | 1006.0 |
| 20260902184007 | 86 | 144 | 1.0 | 3.0 | 0.00 | 0.00 | 0.00 | 80 | 1006.1 |
| 20260902183802 | 86 | 142 | 1.0 | 3.0 | 0.00 | 0.00 | 0.00 | 80 | 1006.1 |
| 20260902183559 | 86 | 130 | 1.0 | 3.0 | 0.00 | 0.00 | 0.00 | 80 | 1006.1 |
| 20260902183501 | 86 | 137 | 2.0 | 3.0 | 0.00 | 0.00 | 0.00 | 80 | 1006.2 |
| 20260902183401 | 86 | 136 | 2.0 | 3.0 | 0.00 | 0.00 | 0.00 | 80 | 1006.1 |
| 20260902183203 | 86 | 115 | 1.0 | 3.0 | 0.00 | 0.00 | 0.00 | 80 | 1006.1 |
| 20260902183100 | 86 | 155 | 1.0 | 3.0 | 0.00 | 0.00 | 0.00 | 80 | 1006.1 |
| 20260902183005 | 86 | 144 | 1.0 | 3.0 | 0.00 | 0.00 | 0.00 | 80 | 1006.1 |
| 20260902182902 | 86 | 128 | 0.0 | 3.0 | 0.00 | 0.00 | 0.00 | 80 | 1006.1 |
| 20260902182702 | 86 | 126 | 1.0 | 3.0 | 0.00 | 0.00 | 0.00 | 80 | 1006.1 |
| 20260902182602 | 86 | 115 | 2.0 | 3.0 | 0.00 | 0.00 | 0.00 | 80 | 1006.1 |
| 20260902182503 | 86 | 98 | 2.0 | 3.0 | 0.00 | 0.00 | 0.00 | 80 | 1006.1 |
| 20260902182359 | 86 | 111 | 2.0 | 3.0 | 0.00 | 0.00 | 0.00 | 80 | 1006.2 |
| 20260902182300 | 86 | 108 | 2.0 | 3.0 | 0.00 | 0.00 | 0.00 | 80 | 1006.2 |
| 20260902182059 | 86 | 103 | 1.0 | 4.0 | 0.00 | 0.00 | 0.00 | 80 | 1006.1 |
| 20260902182005 | 85 | 86 | 1.0 | 4.0 | 0.00 | 0.00 | 0.00 | 80 | 1006.1 |
| 20260902181901 | 85 | 118 | 1.0 | 4.0 | 0.00 | 0.00 | 0.00 | 80 | 1006.1 |
| 20260902181702 | 85 | 126 | 2.0 | 4.0 | 0.00 | 0.00 | 0.00 | 80 | 1006.1 |
| 20260902181602 | 85 | 113 | 2.0 | 4.0 | 0.00 | 0.00 | 0.00 | 80 | 1006.1 |
| 20260902181504 | 85 | 123 | 2.0 | 4.0 | 0.00 | 0.00 | 0.00 | 80 | 1006.1 |
| 20260902181359 | 85 | 114 | 2.0 | 4.0 | 0.00 | 0.00 | 0.00 | 80 | 1006.0 |
| 20260902181301 | 85 | 104 | 2.0 | 4.0 | 0.00 | 0.00 | 0.00 | 80 | 1006.1 |
| 20260902181202 | 85 | 127 | 1.0 | 3.0 | 0.00 | 0.00 | 0.00 | 80 | 1006.1 |
| 20260902181059 | 85 | 133 | 1.0 | 3.0 | 0.00 | 0.00 | 0.00 | 80 | 1006.0 |
| 20260902181002 | 85 | 148 | 1.0 | 3.0 | 0.00 | 0.00 | 0.00 | 81 | 1006.1 |
| 20260902180858 | 85 | 84 | 1.0 | 3.0 | 0.00 | 0.00 | 0.00 | 81 | 1006.1 |
| 20260902180802 | 85 | 139 | 1.0 | 3.0 | 0.00 | 0.00 | 0.00 | 81 | 1006.1 |
| 20260902180700 | 85 | 94 | 1.0 | 3.0 | 0.00 | 0.00 | 0.00 | 81 | 1006.0 |
| 20260902180601 | 85 | 136 | 1.0 | 3.0 | 0.00 | 0.00 | 0.00 | 81 | 1006.1 |
| 20260902180503 | 85 | 115 | 0.0 | 3.0 | 0.00 | 0.00 | 0.00 | 81 | 1006.1 |
| 20260902180400 | 85 | 115 | 0.0 | 3.0 | 0.00 | 0.00 | 0.00 | 81 | 1006.0 |
| 20260902180259 | 85 | 105 | 1.0 | 3.0 | 0.00 | 0.00 | 0.00 | 81 | 1006.1 |
| 20260902180202 | 85 | 100 | 2.0 | 3.0 | 0.00 | 0.00 | 0.00 | 81 | 1006.1 |
| 20260902180010 | 85 | 116 | 2.0 | 3.0 | 0.00 | 0.00 | 0.00 | 81 | 1006.0 |
| 20260902175901 | 85 | 124 | 2.0 | 3.0 | 0.00 | 0.00 | 0.00 | 81 | 1006.0 |
| 20260902175804 | 85 | 123 | 2.0 | 3.0 | 0.00 | 0.00 | 0.00 | 81 | 1006.1 |
| 20260902175703 | 85 | 111 | 2.0 | 3.0 | 0.00 | 0.00 | 0.00 | 81 | 1006.2 |
| 20260902175601 | 85 | 125 | 2.0 | 4.0 | 0.00 | 0.00 | 0.00 | 81 | 1006.1 |
| 20260902175506 | 85 | 108 | 1.0 | 4.0 | 0.00 | 0.00 | 0.00 | 81 | 1006.2 |
| 20260902175307 | 85 | 118 | 1.0 | 4.0 | 0.00 | 0.00 | 0.00 | 81 | 1006.1 |
| 20260902175201 | 85 | 51 | 2.0 | 4.0 | 0.00 | 0.00 | 0.00 | 81 | 1006.2 |
| 20260902175101 | 85 | 88 | 1.0 | 4.0 | 0.00 | 0.00 | 0.00 | 81 | 1006.1 |
| 20260902174759 | 85 | 84 | 2.0 | 4.0 | 0.00 | 0.00 | 0.00 | 80 | 1006.2 |
| 20260902174700 | 85 | 73 | 2.0 | 4.0 | 0.00 | 0.00 | 0.00 | 80 | 1006.2 |
| 20260902174558 | 85 | 96 | 2.0 | 4.0 | 0.00 | 0.00 | 0.00 | 80 | 1006.1 |
| 20260902174507 | 85 | 88 | 2.0 | 4.0 | 0.00 | 0.00 | 0.00 | 80 | 1006.1 |
| 20260902174302 | 85 | 103 | 1.0 | 4.0 | 0.00 | 0.00 | 0.00 | 80 | 1006.1 |
| 20260902174205 | 85 | 86 | 1.0 | 4.0 | 0.00 | 0.00 | 0.00 | 80 | 1006.1 |
| 20260902174102 | 85 | 80 | 1.0 | 4.0 | 0.00 | 0.00 | 0.00 | 80 | 1006.2 |
| 20260902174002 | 85 | 94 | 1.0 | 4.0 | 0.00 | 0.00 | 0.00 | 80 | 1006.1 |
| 20260902173858 | 85 | 58 | 2.0 | 4.0 | 0.00 | 0.00 | 0.00 | 80 | 1006.2 |
| 20260902173802 | 85 | 55 | 2.0 | 4.0 | 0.00 | 0.00 | 0.00 | 80 | 1006.1 |
| 20260902173701 | 85 | 90 | 1.0 | 4.0 | 0.00 | 0.00 | 0.00 | 81 | 1006.1 |
| 20260902173600 | 85 | 117 | 1.0 | 4.0 | 0.00 | 0.00 | 0.00 | 81 | 1006.2 |
| 20260902173500 | 85 | 79 | 2.0 | 4.0 | 0.00 | 0.00 | 0.00 | 81 | 1006.2 |
| 20260902173401 | 85 | 130 | 1.0 | 4.0 | 0.00 | 0.00 | 0.00 | 81 | 1006.2 |
| 20260902173304 | 85 | 126 | 2.0 | 4.0 | 0.00 | 0.00 | 0.00 | 81 | 1006.2 |
| 20260902173200 | 85 | 153 | 2.0 | 4.0 | 0.00 | 0.00 | 0.00 | 81 | 1006.0 |
| 20260902173102 | 85 | 109 | 2.0 | 4.0 | 0.00 | 0.00 | 0.00 | 81 | 1005.9 |
| 20260902173009 | 85 | 110 | 2.0 | 4.0 | 0.00 | 0.00 | 0.00 | 81 | 1005.9 |
| 20260902172901 | 85 | 111 | 2.0 | 4.0 | 0.00 | 0.00 | 0.00 | 81 | 1006.0 |
| 20260902172804 | 85 | 111 | 2.0 | 4.0 | 0.00 | 0.00 | 0.00 | 81 | 1005.9 |
| 20260902172701 | 85 | 111 | 2.0 | 4.0 | 0.00 | 0.00 | 0.00 | 81 | 1005.9 |
| 20260902172601 | 85 | 111 | 2.0 | 4.0 | 0.00 | 0.00 | 0.00 | 81 | 1005.9 |
| 20260902172555 | 85 | 111 | 2.0 | 4.0 | 0.00 | 0.00 | 0.00 | 81 | 1005.9 |
| 20260902172505 | 85 | 95 | 2.0 | 4.0 | 0.00 | 0.00 | 0.00 | 81 | 1005.9 |
| 20260902125402 | 89 | 45 | 4.0 | 5.0 | 0.00 | 0.00 | 0.00 | 76 | 1004.3 |
| 20260902125305 | 89 | 48 | 4.0 | 5.0 | 0.00 | 0.00 | 0.00 | 76 | 1004.2 |
| 20260902125200 | 89 | 54 | 3.0 | 5.0 | 0.00 | 0.00 | 0.00 | 76 | 1004.2 |
| 20260902125103 | 89 | 59 | 3.0 | 4.0 | 0.00 | 0.00 | 0.00 | 76 | 1004.3 |
| 20260902125008 | 90 | 78 | 3.0 | 4.0 | 0.00 | 0.00 | 0.00 | 75 | 1004.3 |
| 20260902124905 | 90 | 52 | 3.0 | 4.0 | 0.00 | 0.00 | 0.00 | 75 | 1004.3 |
| 20260902124700 | 90 | 65 | 2.0 | 4.0 | 0.00 | 0.00 | 0.00 | 75 | 1004.3 |
| 20260902124603 | 90 | 73 | 3.0 | 4.0 | 0.00 | 0.00 | 0.00 | 75 | 1004.4 |
| 20260902124504 | 90 | 40 | 2.0 | 4.0 | 0.00 | 0.00 | 0.00 | 75 | 1004.3 |
| 20260902124404 | 90 | 55 | 2.0 | 4.0 | 0.00 | 0.00 | 0.00 | 75 | 1004.3 |
| 20260902124059 | 90 | 14 | 2.0 | 4.0 | 0.00 | 0.00 | 0.00 | 76 | 1004.4 |
| 20260902124005 | 90 | 20 | 1.0 | 4.0 | 0.00 | 0.00 | 0.00 | 76 | 1004.3 |
| 20260902123907 | 90 | 15 | 0.0 | 4.0 | 0.00 | 0.00 | 0.00 | 76 | 1004.3 |
| 20260902123803 | 90 | 30 | 0.0 | 4.0 | 0.00 | 0.00 | 0.00 | 76 | 1004.4 |
| 20260902123603 | 89 | 355 | 1.0 | 4.0 | 0.00 | 0.00 | 0.00 | 76 | 1004.3 |
| 20260902123508 | 89 | 55 | 1.0 | 4.0 | 0.00 | 0.00 | 0.00 | 76 | 1004.4 |
| 20260902123359 | 89 | 360 | 2.0 | 4.0 | 0.00 | 0.00 | 0.00 | 76 | 1004.4 |
| 20260902123300 | 89 | 41 | 2.0 | 4.0 | 0.00 | 0.00 | 0.00 | 75 | 1004.4 |
| 20260902123200 | 89 | 61 | 2.0 | 5.0 | 0.00 | 0.00 | 0.00 | 75 | 1004.4 |
| 20260902123101 | 90 | 71 | 3.0 | 5.0 | 0.00 | 0.00 | 0.00 | 76 | 1004.4 |
| 20260902123005 | 90 | 47 | 3.0 | 5.0 | 0.00 | 0.00 | 0.00 | 76 | 1004.4 |
| 20260902122702 | 90 | 53 | 3.0 | 5.0 | 0.00 | 0.00 | 0.00 | 75 | 1004.4 |
| 20260902122605 | 90 | 60 | 2.0 | 5.0 | 0.00 | 0.00 | 0.00 | 75 | 1004.3 |
| 20260902122505 | 90 | 36 | 3.0 | 5.0 | 0.00 | 0.00 | 0.00 | 75 | 1004.4 |
| 20260902122400 | 90 | 55 | 2.0 | 5.0 | 0.00 | 0.00 | 0.00 | 76 | 1004.4 |
| 20260902122305 | 90 | 59 | 2.0 | 4.0 | 0.00 | 0.00 | 0.00 | 76 | 1004.5 |
| 20260902122103 | 90 | 34 | 1.0 | 4.0 | 0.00 | 0.00 | 0.00 | 76 | 1004.4 |
| 20260902122007 | 90 | 350 | 1.0 | 4.0 | 0.00 | 0.00 | 0.00 | 76 | 1004.4 |
| 20260902121900 | 90 | 78 | 2.0 | 4.0 | 0.00 | 0.00 | 0.00 | 75 | 1004.4 |
| 20260902121800 | 90 | 32 | 3.0 | 4.0 | 0.00 | 0.00 | 0.00 | 75 | 1004.3 |
| 20260902121605 | 90 | 33 | 2.0 | 4.0 | 0.00 | 0.00 | 0.00 | 75 | 1004.2 |
| 20260902121305 | 90 | 52 | 3.0 | 4.0 | 0.00 | 0.00 | 0.00 | 75 | 1004.2 |
| 20260902121204 | 91 | 5 | 2.0 | 4.0 | 0.00 | 0.00 | 0.00 | 76 | 1004.2 |
| 20260902121004 | 91 | 11 | 2.0 | 3.0 | 0.00 | 0.00 | 0.00 | 75 | 1004.2 |
| 20260902120903 | 91 | 344 | 2.0 | 3.0 | 0.00 | 0.00 | 0.00 | 75 | 1004.3 |
| 20260902120803 | 91 | 344 | 2.0 | 5.0 | 0.00 | 0.00 | 0.00 | 75 | 1004.4 |
| 20260902120703 | 91 | 344 | 2.0 | 5.0 | 0.00 | 0.00 | 0.00 | 75 | 1004.4 |
| 20260902120602 | 91 | 344 | 2.0 | 5.0 | 0.00 | 0.00 | 0.00 | 75 | 1004.4 |
| 20260902120505 | 91 | 344 | 2.0 | 5.0 | 0.00 | 0.00 | 0.00 | 75 | 1004.4 |
| 20260902120403 | 91 | 344 | 2.0 | 5.0 | 0.00 | 0.00 | 0.00 | 74 | 1004.4 |
| 20260902120303 | 91 | 344 | 2.0 | 5.0 | 0.00 | 0.00 | 0.00 | 75 | 1004.4 |
| 20260902120203 | 91 | 344 | 2.0 | 5.0 | 0.00 | 0.00 | 0.00 | 74 | 1004.4 |
| 20260902120105 | 91 | 344 | 2.0 | 5.0 | 0.00 | 0.00 | 0.00 | 74 | 1004.3 |
| 20260902120004 | 91 | 344 | 2.0 | 5.0 | 0.00 | 0.00 | 0.00 | 74 | 1004.3 |
| 20260902115802 | 91 | 276 | 1.0 | 3.0 | 0.00 | 0.00 | 0.00 | 74 | 1004.3 |
| 20260902115703 | 91 | 335 | 2.0 | 3.0 | 0.00 | 0.00 | 0.00 | 74 | 1004.2 |
| 20260902115600 | 91 | 335 | 2.0 | 3.0 | 0.00 | 0.00 | 0.00 | 74 | 1004.3 |
| 20260902115505 | 91 | 324 | 2.0 | 4.0 | 0.00 | 0.00 | 0.00 | 74 | 1004.3 |
| 20260902115405 | 91 | 321 | 2.0 | 4.0 | 0.00 | 0.00 | 0.00 | 74 | 1004.3 |
| 20260902115306 | 91 | 345 | 2.0 | 4.0 | 0.00 | 0.00 | 0.00 | 73 | 1004.3 |
| 20260902115100 | 91 | 346 | 2.0 | 4.0 | 0.00 | 0.00 | 0.00 | 74 | 1004.3 |
| 20260902115005 | 91 | 341 | 2.0 | 4.0 | 0.00 | 0.00 | 0.00 | 74 | 1004.2 |
| 20260902114859 | 91 | 341 | 2.0 | 4.0 | 0.00 | 0.00 | 0.00 | 73 | 1004.3 |
| 20260902114804 | 91 | 17 | 2.0 | 4.0 | 0.00 | 0.00 | 0.00 | 73 | 1004.2 |
| 20260902114659 | 92 | 17 | 1.0 | 4.0 | 0.00 | 0.00 | 0.00 | 73 | 1004.2 |
| 20260902114559 | 92 | 47 | 1.0 | 4.0 | 0.00 | 0.00 | 0.00 | 73 | 1004.2 |
| 20260902114508 | 92 | 71 | 1.0 | 4.0 | 0.00 | 0.00 | 0.00 | 73 | 1004.2 |
| 20260902114403 | 92 | 333 | 1.0 | 4.0 | 0.00 | 0.00 | 0.00 | 73 | 1004.3 |
| 20260902114304 | 92 | 333 | 1.0 | 4.0 | 0.00 | 0.00 | 0.00 | 73 | 1004.3 |
| 20260902114103 | 91 | 300 | 2.0 | 4.0 | 0.00 | 0.00 | 0.00 | 73 | 1004.4 |
| 20260902114007 | 91 | 301 | 3.0 | 4.0 | 0.00 | 0.00 | 0.00 | 73 | 1004.5 |
| 20260902113759 | 92 | 320 | 1.0 | 3.0 | 0.00 | 0.00 | 0.00 | 72 | 1004.5 |
| 20260902113658 | 92 | 355 | 1.0 | 3.0 | 0.00 | 0.00 | 0.00 | 72 | 1004.4 |
| 20260902113602 | 92 | 294 | 1.0 | 3.0 | 0.00 | 0.00 | 0.00 | 72 | 1004.3 |
| 20260902113508 | 92 | 294 | 1.0 | 3.0 | 0.00 | 0.00 | 0.00 | 73 | 1004.3 |
| 20260902113405 | 92 | 307 | 0.0 | 3.0 | 0.00 | 0.00 | 0.00 | 73 | 1004.4 |
| 20260902113305 | 92 | 330 | 0.0 | 3.0 | 0.00 | 0.00 | 0.00 | 73 | 1004.5 |
| 20260902112901 | 91 | 326 | 2.0 | 3.0 | 0.00 | 0.00 | 0.00 | 73 | 1004.5 |
| 20260902112802 | 91 | 326 | 2.0 | 3.0 | 0.00 | 0.00 | 0.00 | 73 | 1004.6 |
| 20260902112701 | 91 | 350 | 1.0 | 3.0 | 0.00 | 0.00 | 0.00 | 73 | 1004.5 |
| 20260902112605 | 91 | 348 | 2.0 | 3.0 | 0.00 | 0.00 | 0.00 | 73 | 1004.5 |
| 20260902112502 | 91 | 340 | 2.0 | 3.0 | 0.00 | 0.00 | 0.00 | 73 | 1004.5 |
| 20260902112403 | 91 | 333 | 1.0 | 3.0 | 0.00 | 0.00 | 0.00 | 73 | 1004.5 |
| 20260902112306 | 91 | 333 | 0.0 | 3.0 | 0.00 | 0.00 | 0.00 | 73 | 1004.5 |
| 20260902112159 | 91 | 333 | 1.0 | 3.0 | 0.00 | 0.00 | 0.00 | 73 | 1004.5 |
| 20260902112103 | 92 | 333 | 1.0 | 3.0 | 0.00 | 0.00 | 0.00 | 73 | 1004.6 |
| 20260902112006 | 92 | 333 | 2.0 | 3.0 | 0.00 | 0.00 | 0.00 | 73 | 1004.6 |
| 20260902111859 | 92 | 333 | 2.0 | 3.0 | 0.00 | 0.00 | 0.00 | 73 | 1004.6 |
| 20260902111700 | 92 | 342 | 2.0 | 3.0 | 0.00 | 0.00 | 0.00 | 73 | 1004.6 |
| 20260902111606 | 92 | 342 | 2.0 | 3.0 | 0.00 | 0.00 | 0.00 | 73 | 1004.6 |
| 20260902111507 | 92 | 325 | 2.0 | 4.0 | 0.00 | 0.00 | 0.00 | 73 | 1004.7 |
| 20260902111400 | 92 | 303 | 2.0 | 4.0 | 0.00 | 0.00 | 0.00 | 73 | 1004.6 |
| 20260902111207 | 92 | 317 | 2.0 | 4.0 | 0.00 | 0.00 | 0.00 | 73 | 1004.7 |
| 20260902111059 | 92 | 342 | 2.0 | 4.0 | 0.00 | 0.00 | 0.00 | 73 | 1004.7 |
| 20260902110900 | 92 | 313 | 2.0 | 4.0 | 0.00 | 0.00 | 0.00 | 73 | 1004.8 |
| 20260902110802 | 92 | 326 | 2.0 | 4.0 | 0.00 | 0.00 | 0.00 | 73 | 1004.8 |
| 20260902110703 | 92 | 300 | 2.0 | 4.0 | 0.00 | 0.00 | 0.00 | 72 | 1004.7 |
| 20260902110603 | 92 | 307 | 2.0 | 4.0 | 0.00 | 0.00 | 0.00 | 72 | 1004.8 |
| 20260902110508 | 92 | 302 | 1.0 | 3.0 | 0.00 | 0.00 | 0.00 | 72 | 1004.8 |
| 20260902110402 | 92 | 339 | 1.0 | 4.0 | 0.00 | 0.00 | 0.00 | 72 | 1004.8 |
| 20260902110302 | 92 | 66 | 0.0 | 4.0 | 0.00 | 0.00 | 0.00 | 72 | 1004.8 |
| 20260902110201 | 92 | 66 | 1.0 | 4.0 | 0.00 | 0.00 | 0.00 | 72 | 1004.7 |
| 20260902110104 | 92 | 66 | 1.0 | 4.0 | 0.00 | 0.00 | 0.00 | 72 | 1004.7 |
| 20260902110006 | 92 | 331 | 1.0 | 4.0 | 0.00 | 0.00 | 0.00 | 72 | 1004.7 |
| 20260902105802 | 92 | 331 | 2.0 | 4.0 | 0.00 | 0.00 | 0.00 | 72 | 1004.7 |
| 20260902105700 | 92 | 331 | 2.0 | 5.0 | 0.00 | 0.00 | 0.00 | 72 | 1004.7 |
| 20260902105506 | 92 | 283 | 2.0 | 5.0 | 0.00 | 0.00 | 0.00 | 72 | 1004.7 |
| 20260902105259 | 92 | 296 | 3.0 | 5.0 | 0.00 | 0.00 | 0.00 | 72 | 1004.8 |
| 20260902105200 | 93 | 292 | 3.0 | 5.0 | 0.00 | 0.00 | 0.00 | 72 | 1004.7 |
| 20260902105103 | 93 | 345 | 3.0 | 5.0 | 0.00 | 0.00 | 0.00 | 72 | 1004.8 |
| 20260902105006 | 93 | 298 | 3.0 | 5.0 | 0.00 | 0.00 | 0.00 | 71 | 1004.8 |
| 20260902104927 | 93 | 298 | 3.0 | 5.0 | 0.00 | 0.00 | 0.00 | 71 | 1004.8 |